Time,TemperatureF,DewpointF,PressureIn,WindDirection,WindDirectionDegrees,WindSpeedMPH,WindSpeedGustMPH,Humidity,HourlyPrecipIn,Conditions,Clouds,dailyrainin,SolarRadiationWatts/m^2,SoftwareType,DateUTC
2013-06-13 00:01:00,78.0,75.0,30.15,SW,217,4.0,8.0,91,0.00,,,0.00,0.000000,,2013-06-13 04:01:00,
2013-06-13 00:12:00,78.0,75.0,30.15,SW,217,4.0,8.0,91,0.00,,,0.00,0.000000,,2013-06-13 04:12:00,
2013-06-13 00:43:00,77.0,75.0,30.13,SW,223,3.0,7.0,94,0.00,,,0.00,0.000000,,2013-06-13 04:43:00,
2013-06-13 00:54:00,77.0,75.0,30.13,SW,223,3.0,7.0,94,0.00,,,0.00,0.000000,,2013-06-13 04:54:00,
2013-06-13 01:02:00,77.0,75.0,30.13,SW,223,3.0,7.0,94,0.00,,,0.00,0.000000,,2013-06-13 05:02:00,
2013-06-13 01:12:00,77.0,75.0,30.13,SW,223,3.0,7.0,94,0.00,,,0.00,0.000000,,2013-06-13 05:12:00,
2013-06-13 01:43:00,74.0,73.0,30.12,SSW,195,1.0,5.0,96,0.00,,,0.00,0.000000,,2013-06-13 05:43:00,
2013-06-13 01:53:00,74.0,73.0,30.12,SSW,195,1.0,5.0,96,0.00,,,0.00,0.000000,,2013-06-13 05:53:00,
2013-06-13 02:02:00,74.0,73.0,30.12,SSW,195,1.0,5.0,96,0.00,,,0.00,0.000000,,2013-06-13 06:02:00,
2013-06-13 02:11:00,74.0,73.0,30.12,SSW,195,1.0,5.0,96,0.00,,,0.00,0.000000,,2013-06-13 06:11:00,
2013-06-13 02:44:00,73.0,72.0,30.12,South,189,2.0,3.0,98,0.00,,,0.00,0.000000,,2013-06-13 06:44:00,
2013-06-13 02:52:00,73.0,72.0,30.12,South,189,2.0,3.0,98,0.00,,,0.00,0.000000,,2013-06-13 06:52:00,
2013-06-13 03:02:00,73.0,72.0,30.12,South,189,2.0,3.0,98,0.00,,,0.00,0.000000,,2013-06-13 07:02:00,
2013-06-13 03:12:00,73.0,72.0,30.12,South,189,2.0,3.0,98,0.00,,,0.00,0.000000,,2013-06-13 07:12:00,
2013-06-13 03:42:00,73.0,72.0,30.11,West,275,2.0,4.0,98,0.00,,,0.00,0.000000,,2013-06-13 07:42:00,
2013-06-13 03:52:00,73.0,72.0,30.11,West,275,2.0,4.0,98,0.00,,,0.00,0.000000,,2013-06-13 07:52:00,
2013-06-13 04:02:00,73.0,72.0,30.11,West,275,2.0,4.0,98,0.00,,,0.00,0.000000,,2013-06-13 08:02:00,
2013-06-13 04:11:00,73.0,72.0,30.11,West,275,2.0,4.0,98,0.00,,,0.00,0.000000,,2013-06-13 08:11:00,
2013-06-13 04:43:00,75.0,74.0,30.10,SW,222,3.0,6.0,98,0.00,,,0.00,0.000000,,2013-06-13 08:43:00,
2013-06-13 04:52:00,75.0,74.0,30.10,SW,222,3.0,6.0,98,0.00,,,0.00,0.000000,,2013-06-13 08:52:00,
2013-06-13 05:02:00,75.0,74.0,30.10,SW,222,3.0,6.0,98,0.00,,,0.00,0.000000,,2013-06-13 09:02:00,
2013-06-13 05:12:00,75.0,74.0,30.10,SW,222,3.0,6.0,98,0.00,,,0.00,0.000000,,2013-06-13 09:12:00,
2013-06-13 05:42:00,74.0,73.0,30.10,SW,220,2.0,7.0,98,0.00,,,0.00,0.000000,,2013-06-13 09:42:00,
2013-06-13 05:52:00,74.0,73.0,30.10,SW,220,2.0,7.0,98,0.00,,,0.00,0.000000,,2013-06-13 09:52:00,
2013-06-13 06:01:00,74.0,73.0,30.10,SW,220,2.0,7.0,98,0.00,,,0.00,0.000000,,2013-06-13 10:01:00,
2013-06-13 06:12:00,74.0,73.0,30.10,SW,220,2.0,7.0,98,0.00,,,0.00,0.000000,,2013-06-13 10:12:00,
2013-06-13 06:43:00,76.0,76.0,30.09,SSW,206,3.0,6.0,99,0.00,,,0.00,0.000000,,2013-06-13 10:43:00,
2013-06-13 06:53:00,76.0,76.0,30.09,SSW,206,3.0,6.0,99,0.00,,,0.00,0.000000,,2013-06-13 10:53:00,
2013-06-13 07:02:00,76.0,76.0,30.09,SSW,206,3.0,6.0,99,0.00,,,0.00,0.000000,,2013-06-13 11:02:00,
2013-06-13 07:12:00,76.0,76.0,30.09,SSW,206,3.0,6.0,99,0.00,,,0.00,0.000000,,2013-06-13 11:12:00,
2013-06-13 07:42:00,78.0,76.0,30.08,SW,220,4.0,30.0,95,0.00,,,0.00,42.000000,,2013-06-13 11:42:00,
2013-06-13 07:52:00,78.0,76.0,30.08,SW,220,4.0,30.0,95,0.00,,,0.00,42.000000,,2013-06-13 11:52:00,
2013-06-13 08:02:00,78.0,76.0,30.08,SW,220,4.0,30.0,95,0.00,,,0.00,42.000000,,2013-06-13 12:02:00,
2013-06-13 08:12:00,78.0,76.0,30.08,SW,220,4.0,30.0,95,0.00,,,0.00,42.000000,,2013-06-13 12:12:00,
2013-06-13 08:43:00,85.0,78.0,30.08,SW,224,6.0,13.0,80,0.00,,,0.00,212.000000,,2013-06-13 12:43:00,
2013-06-13 08:52:00,85.0,78.0,30.08,SW,224,6.0,13.0,80,0.00,,,0.00,212.000000,,2013-06-13 12:52:00,
2013-06-13 09:02:00,85.0,78.0,30.08,SW,224,6.0,13.0,80,0.00,,,0.00,212.000000,,2013-06-13 13:02:00,
2013-06-13 09:11:00,85.0,78.0,30.08,SW,224,6.0,13.0,80,0.00,,,0.00,212.000000,,2013-06-13 13:11:00,
2013-06-13 09:43:00,88.0,76.0,30.06,SW,235,7.0,18.0,67,0.00,,,0.00,445.000000,,2013-06-13 13:43:00,
2013-06-13 09:53:00,88.0,76.0,30.06,SW,235,7.0,18.0,67,0.00,,,0.00,445.000000,,2013-06-13 13:53:00,
2013-06-13 10:02:00,88.0,76.0,30.06,SW,235,7.0,18.0,67,0.00,,,0.00,445.000000,,2013-06-13 14:02:00,
2013-06-13 10:11:00,88.0,76.0,30.06,SW,235,7.0,18.0,67,0.00,,,0.00,445.000000,,2013-06-13 14:11:00,
2013-06-13 10:43:00,92.0,78.0,30.06,WSW,245,8.0,19.0,63,0.00,,,0.00,668.000000,,2013-06-13 14:43:00,
2013-06-13 10:53:00,92.0,78.0,30.06,WSW,245,8.0,19.0,63,0.00,,,0.00,668.000000,,2013-06-13 14:53:00,
2013-06-13 11:02:00,92.0,78.0,30.06,WSW,245,8.0,19.0,63,0.00,,,0.00,668.000000,,2013-06-13 15:02:00,
2013-06-13 11:12:00,92.0,78.0,30.06,WSW,245,8.0,19.0,63,0.00,,,0.00,668.000000,,2013-06-13 15:12:00,
2013-06-13 11:43:00,93.0,74.0,30.05,WSW,243,9.0,21.0,55,0.00,,,0.00,853.000000,,2013-06-13 15:43:00,
2013-06-13 11:53:00,93.0,74.0,30.05,WSW,243,9.0,21.0,55,0.00,,,0.00,853.000000,,2013-06-13 15:53:00,
2013-06-13 12:02:00,93.0,74.0,30.05,WSW,243,9.0,21.0,55,0.00,,,0.00,853.000000,,2013-06-13 16:02:00,
2013-06-13 12:12:00,93.0,74.0,30.05,WSW,243,9.0,21.0,55,0.00,,,0.00,853.000000,,2013-06-13 16:12:00,
2013-06-13 12:43:00,95.0,72.0,30.02,SW,230,11.0,23.0,47,0.00,,,0.00,1000.000000,,2013-06-13 16:43:00,
2013-06-13 12:54:00,95.0,72.0,30.02,SW,230,11.0,23.0,47,0.00,,,0.00,1000.000000,,2013-06-13 16:54:00,
2013-06-13 13:02:00,95.0,72.0,30.02,SW,230,11.0,23.0,47,0.00,,,0.00,1000.000000,,2013-06-13 17:02:00,
2013-06-13 13:12:00,95.0,72.0,30.02,SW,230,11.0,23.0,47,0.00,,,0.00,1000.000000,,2013-06-13 17:12:00,
2013-06-13 13:43:00,98.0,71.0,30.00,WSW,238,13.0,26.0,42,0.00,,,0.00,1078.000000,,2013-06-13 17:43:00,
2013-06-13 13:53:00,98.0,71.0,30.00,WSW,238,13.0,26.0,42,0.00,,,0.00,1078.000000,,2013-06-13 17:53:00,
2013-06-13 14:02:00,98.0,71.0,30.00,WSW,238,13.0,26.0,42,0.00,,,0.00,1078.000000,,2013-06-13 18:02:00,
2013-06-13 14:11:00,98.0,71.0,30.00,WSW,238,13.0,26.0,42,0.00,,,0.00,1078.000000,,2013-06-13 18:11:00,
2013-06-13 14:43:00,96.0,73.0,29.97,SW,229,11.0,27.0,48,0.00,,,0.00,1086.000000,,2013-06-13 18:43:00,
2013-06-13 14:52:00,96.0,73.0,29.97,SW,229,11.0,27.0,48,0.00,,,0.00,1086.000000,,2013-06-13 18:52:00,
2013-06-13 15:02:00,96.0,73.0,29.97,SW,229,11.0,27.0,48,0.00,,,0.00,1086.000000,,2013-06-13 19:02:00,
2013-06-13 15:11:00,96.0,73.0,29.97,SW,229,11.0,27.0,48,0.00,,,0.00,1086.000000,,2013-06-13 19:11:00,
2013-06-13 15:43:00,95.0,74.0,29.94,SW,226,13.0,28.0,51,0.00,,,0.00,1025.000000,,2013-06-13 19:43:00,
2013-06-13 15:53:00,95.0,74.0,29.94,SW,226,13.0,28.0,51,0.00,,,0.00,1025.000000,,2013-06-13 19:53:00,
2013-06-13 16:02:00,95.0,74.0,29.94,SW,226,13.0,28.0,51,0.00,,,0.00,1025.000000,,2013-06-13 20:02:00,
2013-06-13 16:11:00,95.0,74.0,29.94,SW,226,13.0,28.0,51,0.00,,,0.00,1025.000000,,2013-06-13 20:11:00,
2013-06-13 16:44:00,95.0,76.0,29.93,SW,226,11.0,27.0,54,0.00,,,0.00,914.000000,,2013-06-13 20:44:00,
2013-06-13 16:53:00,95.0,76.0,29.93,SW,226,11.0,27.0,54,0.00,,,0.00,914.000000,,2013-06-13 20:53:00,
2013-06-13 17:02:00,95.0,76.0,29.93,SW,226,11.0,27.0,54,0.00,,,0.00,914.000000,,2013-06-13 21:02:00,
2013-06-13 17:11:00,95.0,76.0,29.93,SW,226,11.0,27.0,54,0.00,,,0.00,914.000000,,2013-06-13 21:11:00,
2013-06-13 17:43:00,96.0,77.0,29.91,SW,229,10.0,27.0,54,0.00,,,0.00,751.000000,,2013-06-13 21:43:00,
2013-06-13 17:52:00,96.0,77.0,29.91,SW,229,10.0,27.0,54,0.00,,,0.00,751.000000,,2013-06-13 21:52:00,
2013-06-13 18:02:00,96.0,77.0,29.91,SW,229,10.0,27.0,54,0.00,,,0.00,751.000000,,2013-06-13 22:02:00,
2013-06-13 18:11:00,96.0,77.0,29.91,SW,229,10.0,27.0,54,0.00,,,0.00,751.000000,,2013-06-13 22:11:00,
2013-06-13 18:43:00,92.0,76.0,29.90,SW,230,11.0,27.0,59,0.00,,,0.00,546.000000,,2013-06-13 22:43:00,
2013-06-13 18:52:00,92.0,76.0,29.90,SW,230,11.0,27.0,59,0.00,,,0.00,546.000000,,2013-06-13 22:52:00,
2013-06-13 19:02:00,92.0,76.0,29.90,SW,230,11.0,27.0,59,0.00,,,0.00,546.000000,,2013-06-13 23:02:00,
2013-06-13 19:11:00,92.0,76.0,29.90,SW,230,11.0,27.0,59,0.00,,,0.00,546.000000,,2013-06-13 23:11:00,
2013-06-13 19:43:00,91.0,77.0,29.92,WSW,237,8.0,22.0,64,0.00,,,0.00,322.000000,,2013-06-13 23:43:00,
2013-06-13 19:52:00,91.0,77.0,29.92,WSW,237,8.0,22.0,64,0.00,,,0.00,322.000000,,2013-06-13 23:52:00,
2013-06-13 20:02:00,91.0,77.0,29.92,WSW,237,8.0,22.0,64,0.00,,,0.00,322.000000,,2013-06-14 00:02:00,
2013-06-13 20:12:00,91.0,77.0,29.92,WSW,237,8.0,22.0,64,0.00,,,0.00,322.000000,,2013-06-14 00:12:00,
2013-06-13 20:43:00,86.0,76.0,29.93,WSW,241,5.0,16.0,73,0.00,,,0.00,92.000000,,2013-06-14 00:43:00,
2013-06-13 20:53:00,86.0,76.0,29.93,WSW,241,5.0,16.0,73,0.00,,,0.00,92.000000,,2013-06-14 00:53:00,
2013-06-13 21:01:00,86.0,76.0,29.93,WSW,241,5.0,16.0,73,0.00,,,0.00,92.000000,,2013-06-14 01:01:00,
2013-06-13 21:11:00,86.0,76.0,29.93,WSW,241,5.0,16.0,73,0.00,,,0.00,92.000000,,2013-06-14 01:11:00,
2013-06-13 21:43:00,79.0,64.0,29.95,NW,325,11.0,30.0,61,0.00,,,0.00,1.000000,,2013-06-14 01:43:00,
2013-06-13 21:53:00,79.0,64.0,29.95,NW,325,11.0,30.0,61,0.00,,,0.00,1.000000,,2013-06-14 01:53:00,
2013-06-13 22:02:00,79.0,64.0,29.95,NW,325,11.0,30.0,61,0.00,,,0.00,1.000000,,2013-06-14 02:02:00,
2013-06-13 22:11:00,79.0,64.0,29.95,NW,325,11.0,30.0,61,0.00,,,0.00,1.000000,,2013-06-14 02:11:00,
2013-06-13 22:43:00,77.0,66.0,29.93,NE,55,1.0,9.0,69,0.00,,,0.00,0.000000,,2013-06-14 02:43:00,
2013-06-13 22:53:00,77.0,66.0,29.93,NE,55,1.0,9.0,69,0.00,,,0.00,0.000000,,2013-06-14 02:53:00,
2013-06-13 23:02:00,77.0,66.0,29.93,NE,55,1.0,9.0,69,0.00,,,0.00,0.000000,,2013-06-14 03:02:00,
2013-06-13 23:12:00,77.0,66.0,29.93,NE,55,1.0,9.0,69,0.00,,,0.00,0.000000,,2013-06-14 03:12:00,
2013-06-13 23:43:00,75.0,66.0,30.03,NW,316,16.0,41.0,73,0.01,,,0.01,0.000000,,2013-06-14 03:43:00,
2013-06-13 23:53:00,75.0,66.0,30.03,NW,316,16.0,41.0,73,0.01,,,0.01,0.000000,,2013-06-14 03:53:00,